Year,Month,Day,Hour,Minute,Value (Times are PST for temperature in C)
2016,08,25,00,00,20.40
2016,08,25,00,01,20.40
2016,08,25,00,02,20.30
2016,08,25,00,03,20.20
2016,08,25,00,04,20.20
2016,08,25,00,05,20.10
2016,08,25,00,06,20.10
2016,08,25,00,07,20.00
2016,08,25,00,08,19.90
2016,08,25,00,09,19.70
2016,08,25,00,10,19.60
2016,08,25,00,11,19.50
2016,08,25,00,12,19.40
2016,08,25,00,13,19.30
2016,08,25,00,14,19.20
2016,08,25,00,15,19.20
2016,08,25,00,16,19.10
2016,08,25,00,17,19.10
2016,08,25,00,18,19.00
2016,08,25,00,19,19.00
2016,08,25,00,20,18.90
2016,08,25,00,21,18.90
2016,08,25,00,22,18.90
2016,08,25,00,23,18.80
2016,08,25,00,24,18.80
2016,08,25,00,25,18.70
2016,08,25,00,26,18.60
2016,08,25,00,27,18.50
2016,08,25,00,28,18.50
2016,08,25,00,29,18.40
2016,08,25,00,30,18.40
2016,08,25,00,31,18.40
2016,08,25,00,32,18.30
2016,08,25,00,33,18.30
2016,08,25,00,34,18.30
2016,08,25,00,35,18.30
2016,08,25,00,36,18.30
2016,08,25,00,37,18.30
2016,08,25,00,38,18.30
2016,08,25,00,39,18.30
2016,08,25,00,40,18.40
2016,08,25,00,41,18.40
2016,08,25,00,42,18.50
2016,08,25,00,43,18.50
2016,08,25,00,44,18.60
2016,08,25,00,45,18.70
2016,08,25,00,46,18.80
2016,08,25,00,47,18.80
2016,08,25,00,48,18.90
2016,08,25,00,49,19.00
2016,08,25,00,50,19.00
2016,08,25,00,51,18.90
2016,08,25,00,52,18.70
2016,08,25,00,53,18.50
2016,08,25,00,54,18.30
2016,08,25,00,55,18.10
2016,08,25,00,56,18.00
2016,08,25,00,57,17.80
2016,08,25,00,58,17.70
2016,08,25,00,59,17.60
2016,08,25,01,00,17.50
2016,08,25,01,01,17.40
2016,08,25,01,02,17.30
2016,08,25,01,03,17.20
2016,08,25,01,04,17.20
2016,08,25,01,05,17.00
2016,08,25,01,06,17.00
2016,08,25,01,07,16.90
2016,08,25,01,08,16.80
2016,08,25,01,09,16.70
2016,08,25,01,10,16.70
2016,08,25,01,11,16.60
2016,08,25,01,12,16.60
2016,08,25,01,13,16.50
2016,08,25,01,14,16.50
2016,08,25,01,15,16.50
2016,08,25,01,16,16.50
2016,08,25,01,17,16.40
2016,08,25,01,18,16.40
2016,08,25,01,19,16.40
2016,08,25,01,20,16.40
2016,08,25,01,21,16.40
2016,08,25,01,22,16.30
2016,08,25,01,23,16.30
2016,08,25,01,24,16.30
2016,08,25,01,25,16.20
2016,08,25,01,26,16.20
2016,08,25,01,27,16.10
2016,08,25,01,28,16.10
2016,08,25,01,29,16.00
2016,08,25,01,30,16.00
2016,08,25,01,31,15.90
2016,08,25,01,32,15.90
2016,08,25,01,33,15.80
2016,08,25,01,34,15.80
2016,08,25,01,35,15.70
2016,08,25,01,36,15.70
2016,08,25,01,37,15.60
2016,08,25,01,38,15.60
2016,08,25,01,39,15.50
2016,08,25,01,40,15.40
2016,08,25,01,41,15.40
2016,08,25,01,42,15.40
2016,08,25,01,43,15.30
2016,08,25,01,44,15.30
2016,08,25,01,45,15.30
2016,08,25,01,46,15.20
2016,08,25,01,47,15.20
2016,08,25,01,48,15.20
2016,08,25,01,49,15.20
2016,08,25,01,50,15.20
2016,08,25,01,51,15.30
2016,08,25,01,52,15.30
2016,08,25,01,53,15.30
2016,08,25,01,54,15.30
2016,08,25,01,55,15.30
2016,08,25,01,56,15.20
2016,08,25,01,57,15.20
2016,08,25,01,58,15.20
2016,08,25,01,59,15.20
2016,08,25,02,00,15.10
2016,08,25,02,01,15.10
2016,08,25,02,02,15.10
2016,08,25,02,03,15.10
2016,08,25,02,04,15.10
2016,08,25,02,05,15.10
2016,08,25,02,06,15.00
2016,08,25,02,07,14.90
2016,08,25,02,08,14.90
2016,08,25,02,09,14.90
2016,08,25,02,10,14.80
2016,08,25,02,11,14.70
2016,08,25,02,12,14.70
2016,08,25,02,13,14.60
2016,08,25,02,14,14.60
2016,08,25,02,15,14.50
2016,08,25,02,16,14.40
2016,08,25,02,17,14.40
2016,08,25,02,18,14.40
2016,08,25,02,19,14.40
2016,08,25,02,20,14.30
2016,08,25,02,21,14.30
2016,08,25,02,22,14.20
2016,08,25,02,23,14.10
2016,08,25,02,24,14.10
2016,08,25,02,25,14.00
2016,08,25,02,26,14.00
2016,08,25,02,27,13.90
2016,08,25,02,28,13.90
2016,08,25,02,29,13.80
2016,08,25,02,30,13.80
2016,08,25,02,31,13.80
2016,08,25,02,32,13.80
2016,08,25,02,33,13.80
2016,08,25,02,34,13.80
2016,08,25,02,35,13.80
2016,08,25,02,36,13.80
2016,08,25,02,37,13.80
2016,08,25,02,38,13.80
2016,08,25,02,39,13.80
2016,08,25,02,40,13.80
2016,08,25,02,41,13.80
2016,08,25,02,42,13.90
2016,08,25,02,43,13.90
2016,08,25,02,44,13.90
2016,08,25,02,45,13.90
2016,08,25,02,46,13.90
2016,08,25,02,47,13.90
2016,08,25,02,48,13.90
2016,08,25,02,49,13.90
2016,08,25,02,50,13.90
2016,08,25,02,51,13.90
2016,08,25,02,52,13.90
2016,08,25,02,53,13.90
2016,08,25,02,54,13.90
2016,08,25,02,55,13.90
2016,08,25,02,56,13.90
2016,08,25,02,57,13.90
2016,08,25,02,58,13.80
2016,08,25,02,59,13.80
2016,08,25,03,00,13.80
2016,08,25,03,01,13.80
2016,08,25,03,02,13.80
2016,08,25,03,03,13.80
2016,08,25,03,04,13.70
2016,08,25,03,05,13.70
2016,08,25,03,06,13.70
2016,08,25,03,07,13.70
2016,08,25,03,08,13.70
2016,08,25,03,09,13.70
2016,08,25,03,10,13.70
2016,08,25,03,11,13.70
2016,08,25,03,12,13.70
2016,08,25,03,13,13.70
2016,08,25,03,14,13.70
2016,08,25,03,15,13.80
2016,08,25,03,16,13.80
2016,08,25,03,17,13.80
2016,08,25,03,18,13.80
2016,08,25,03,19,13.80
2016,08,25,03,20,13.80
2016,08,25,03,21,13.70
2016,08,25,03,22,13.70
2016,08,25,03,23,13.60
2016,08,25,03,24,13.60
2016,08,25,03,25,13.50
2016,08,25,03,26,13.50
2016,08,25,03,27,13.50
2016,08,25,03,28,13.40
2016,08,25,03,29,13.40
2016,08,25,03,30,13.40
2016,08,25,03,31,13.30
2016,08,25,03,32,13.30
2016,08,25,03,33,13.30
2016,08,25,03,34,13.30
2016,08,25,03,35,13.20
2016,08,25,03,36,13.20
2016,08,25,03,37,13.20
2016,08,25,03,38,13.20
2016,08,25,03,39,13.20
2016,08,25,03,40,13.20
2016,08,25,03,41,13.20
2016,08,25,03,42,13.20
2016,08,25,03,43,13.20
2016,08,25,03,44,13.20
2016,08,25,03,45,13.20
2016,08,25,03,46,13.20
2016,08,25,03,47,13.20
2016,08,25,03,48,13.20
2016,08,25,03,49,13.20
2016,08,25,03,50,13.20
2016,08,25,03,51,13.20
2016,08,25,03,52,13.30
2016,08,25,03,53,13.30
2016,08,25,03,54,13.30
2016,08,25,03,55,13.30
2016,08,25,03,56,13.30
2016,08,25,03,57,13.20
2016,08,25,03,58,13.20
2016,08,25,03,59,13.30
2016,08,25,04,00,13.20
2016,08,25,04,01,13.20
2016,08,25,04,02,13.20
2016,08,25,04,03,13.10
2016,08,25,04,04,13.10
2016,08,25,04,05,13.00
2016,08,25,04,06,13.00
2016,08,25,04,07,13.00
2016,08,25,04,08,12.90
2016,08,25,04,09,12.90
2016,08,25,04,10,12.80
2016,08,25,04,11,12.80
2016,08,25,04,12,12.80
2016,08,25,04,13,12.80
2016,08,25,04,14,12.80
2016,08,25,04,15,12.80
2016,08,25,04,16,12.80
2016,08,25,04,17,12.80
2016,08,25,04,18,12.80
2016,08,25,04,19,12.70
2016,08,25,04,20,12.70
2016,08,25,04,21,12.70
2016,08,25,04,22,12.70
2016,08,25,04,23,12.70
2016,08,25,04,24,12.70
2016,08,25,04,25,12.70
2016,08,25,04,26,12.70
2016,08,25,04,27,12.70
2016,08,25,04,28,12.70
2016,08,25,04,29,12.70
2016,08,25,04,30,12.70
2016,08,25,04,31,12.70
2016,08,25,04,32,12.70
2016,08,25,04,33,12.70
2016,08,25,04,34,12.70
2016,08,25,04,35,12.70
2016,08,25,04,36,12.70
2016,08,25,04,37,12.70
2016,08,25,04,38,12.70
2016,08,25,04,39,12.70
2016,08,25,04,40,12.70
2016,08,25,04,41,12.70
2016,08,25,04,42,12.70
2016,08,25,04,43,12.70
2016,08,25,04,44,12.70
2016,08,25,04,45,12.60
2016,08,25,04,46,12.60
2016,08,25,04,47,12.60
2016,08,25,04,48,12.50
2016,08,25,04,49,12.50
2016,08,25,04,50,12.40
2016,08,25,04,51,12.30
2016,08,25,04,52,12.30
2016,08,25,04,53,12.20
2016,08,25,04,54,12.20
2016,08,25,04,55,12.20
2016,08,25,04,56,12.20
2016,08,25,04,57,12.20
2016,08,25,04,58,12.20
2016,08,25,04,59,12.10
2016,08,25,05,00,12.20
2016,08,25,05,01,12.10
2016,08,25,05,02,12.10
2016,08,25,05,03,12.10
2016,08,25,05,04,12.10
2016,08,25,05,05,12.10
2016,08,25,05,06,12.10
2016,08,25,05,07,12.10
2016,08,25,05,08,12.20
2016,08,25,05,09,12.20
2016,08,25,05,10,12.20
2016,08,25,05,11,12.20
2016,08,25,05,12,12.20
2016,08,25,05,13,12.20
2016,08,25,05,14,12.10
2016,08,25,05,15,12.10
2016,08,25,05,16,12.10
2016,08,25,05,17,12.10
2016,08,25,05,18,12.00
2016,08,25,05,19,12.00
2016,08,25,05,20,11.90
2016,08,25,05,21,11.90
2016,08,25,05,22,11.90
2016,08,25,05,23,11.90
2016,08,25,05,24,11.90
2016,08,25,05,25,11.80
2016,08,25,05,26,11.80
2016,08,25,05,27,11.80
2016,08,25,05,28,11.80
2016,08,25,05,29,11.80
2016,08,25,05,30,11.80
2016,08,25,05,31,11.80
2016,08,25,05,32,11.80
2016,08,25,05,33,11.80
2016,08,25,05,34,11.70
2016,08,25,05,35,11.70
2016,08,25,05,36,11.70
2016,08,25,05,37,11.70
2016,08,25,05,38,11.70
2016,08,25,05,39,11.70
2016,08,25,05,40,11.60
2016,08,25,05,41,11.60
2016,08,25,05,42,11.60
2016,08,25,05,43,11.50
2016,08,25,05,44,11.50
2016,08,25,05,45,11.50
2016,08,25,05,46,11.50
2016,08,25,05,47,11.50
2016,08,25,05,48,11.50
2016,08,25,05,49,11.50
2016,08,25,05,50,11.50
2016,08,25,05,51,11.50
2016,08,25,05,52,11.50
2016,08,25,05,53,11.60
2016,08,25,05,54,11.60
2016,08,25,05,55,11.60
2016,08,25,05,56,11.60
2016,08,25,05,57,11.60
2016,08,25,05,58,11.60
2016,08,25,05,59,11.60
2016,08,25,06,00,11.60
2016,08,25,06,01,11.60
2016,08,25,06,02,11.70
2016,08,25,06,03,11.70
2016,08,25,06,04,11.70
2016,08,25,06,05,11.70
2016,08,25,06,06,11.70
2016,08,25,06,07,11.70
2016,08,25,06,08,11.70
2016,08,25,06,09,11.70
2016,08,25,06,10,11.70
2016,08,25,06,11,11.70
2016,08,25,06,12,11.70
2016,08,25,06,13,11.70
2016,08,25,06,14,11.70
2016,08,25,06,15,11.70
2016,08,25,06,16,11.60
2016,08,25,06,17,11.60
2016,08,25,06,18,11.60
2016,08,25,06,19,11.60
2016,08,25,06,20,11.70
2016,08,25,06,21,11.70
2016,08,25,06,22,11.70
2016,08,25,06,23,11.70
2016,08,25,06,24,11.70
2016,08,25,06,25,11.70
2016,08,25,06,26,11.70
2016,08,25,06,27,11.70
2016,08,25,06,28,11.60
2016,08,25,06,29,11.60
2016,08,25,06,30,11.60
2016,08,25,06,31,11.60
2016,08,25,06,32,11.60
2016,08,25,06,33,11.60
2016,08,25,06,34,11.60
2016,08,25,06,35,11.60
2016,08,25,06,36,11.60
2016,08,25,06,37,11.60
2016,08,25,06,38,11.60
2016,08,25,06,39,11.60
2016,08,25,06,40,11.60
2016,08,25,06,41,11.60
2016,08,25,06,42,11.50
2016,08,25,06,43,11.50
2016,08,25,06,44,11.40
2016,08,25,06,45,11.40
2016,08,25,06,46,11.40
2016,08,25,06,47,11.40
2016,08,25,06,48,11.40
2016,08,25,06,49,11.30
2016,08,25,06,50,11.30
2016,08,25,06,51,11.30
2016,08,25,06,52,11.30
2016,08,25,06,53,11.30
2016,08,25,06,54,11.30
2016,08,25,06,55,11.30
2016,08,25,06,56,11.30
2016,08,25,06,57,11.20
2016,08,25,06,58,11.20
2016,08,25,06,59,11.30
2016,08,25,07,00,11.20
2016,08,25,07,01,11.30
2016,08,25,07,02,11.30
2016,08,25,07,03,11.30
2016,08,25,07,04,11.30
2016,08,25,07,05,11.30
2016,08,25,07,06,11.30
2016,08,25,07,07,11.30
2016,08,25,07,08,11.30
2016,08,25,07,09,11.30
2016,08,25,07,10,11.40
2016,08,25,07,11,11.40
2016,08,25,07,12,11.40
2016,08,25,07,13,11.40
2016,08,25,07,14,11.40
2016,08,25,07,15,11.40
2016,08,25,07,16,11.40
2016,08,25,07,17,11.40
2016,08,25,07,18,11.40
2016,08,25,07,19,11.40
2016,08,25,07,20,11.40
2016,08,25,07,21,11.40
2016,08,25,07,22,11.50
2016,08,25,07,23,11.50
2016,08,25,07,24,11.50
2016,08,25,07,25,11.60
2016,08,25,07,26,11.60
2016,08,25,07,27,11.60
2016,08,25,07,28,11.60
2016,08,25,07,29,11.70
2016,08,25,07,30,11.70
2016,08,25,07,31,11.70
2016,08,25,07,32,11.70
2016,08,25,07,33,11.70
2016,08,25,07,34,11.70
2016,08,25,07,35,11.70
2016,08,25,07,36,11.70
2016,08,25,07,37,11.70
2016,08,25,07,38,11.70
2016,08,25,07,39,11.70
2016,08,25,07,40,11.70
2016,08,25,07,41,11.70
2016,08,25,07,42,11.70
2016,08,25,07,43,11.70
2016,08,25,07,44,11.70
2016,08,25,07,45,11.70
2016,08,25,07,46,11.70
2016,08,25,07,47,11.80
2016,08,25,07,48,11.80
2016,08,25,07,49,11.80
2016,08,25,07,50,11.80
2016,08,25,07,51,11.90
2016,08,25,07,52,12.00
2016,08,25,07,53,12.00
2016,08,25,07,54,12.10
2016,08,25,07,55,12.20
2016,08,25,07,56,12.30
2016,08,25,07,57,12.30
2016,08,25,07,58,12.40
2016,08,25,07,59,12.40
2016,08,25,08,00,12.50
2016,08,25,08,01,12.50
2016,08,25,08,02,12.60
2016,08,25,08,03,12.70
2016,08,25,08,04,12.70
2016,08,25,08,05,12.80
2016,08,25,08,06,12.90
2016,08,25,08,07,13.00
2016,08,25,08,08,13.00
2016,08,25,08,09,13.10
2016,08,25,08,10,13.20
2016,08,25,08,11,13.30
2016,08,25,08,12,13.30
2016,08,25,08,13,13.40
2016,08,25,08,14,13.50
2016,08,25,08,15,13.60
2016,08,25,08,16,13.70
2016,08,25,08,17,13.90
2016,08,25,08,18,14.00
2016,08,25,08,19,14.10
2016,08,25,08,20,14.20
2016,08,25,08,21,14.40
2016,08,25,08,22,14.50
2016,08,25,08,23,14.70
2016,08,25,08,24,14.80
2016,08,25,08,25,14.90
2016,08,25,08,26,15.10
2016,08,25,08,27,15.20
2016,08,25,08,28,15.40
2016,08,25,08,29,15.50
2016,08,25,08,30,15.60
2016,08,25,08,31,15.80
2016,08,25,08,32,15.90
2016,08,25,08,33,16.00
2016,08,25,08,34,16.10
2016,08,25,08,35,16.20
2016,08,25,08,36,16.30
2016,08,25,08,37,16.40
2016,08,25,08,38,16.50
2016,08,25,08,39,16.60
2016,08,25,08,40,16.80
2016,08,25,08,41,16.90
2016,08,25,08,42,17.00
2016,08,25,08,43,17.10
2016,08,25,08,44,17.30
2016,08,25,08,45,17.40
2016,08,25,08,46,17.60
2016,08,25,08,47,17.70
2016,08,25,08,48,17.90
2016,08,25,08,49,18.00
2016,08,25,08,50,18.10
2016,08,25,08,51,18.20
2016,08,25,08,52,18.30
2016,08,25,08,53,18.40
2016,08,25,08,54,18.50
2016,08,25,08,55,18.60
2016,08,25,08,56,18.70
2016,08,25,08,57,18.70
2016,08,25,08,58,18.80
2016,08,25,08,59,18.80
2016,08,25,09,00,18.90
2016,08,25,09,01,19.00
2016,08,25,09,02,19.10
2016,08,25,09,03,19.20
2016,08,25,09,04,19.30
2016,08,25,09,05,19.30
2016,08,25,09,06,19.40
2016,08,25,09,07,19.50
2016,08,25,09,08,19.60
2016,08,25,09,09,19.70
2016,08,25,09,10,19.80
2016,08,25,09,11,19.80
2016,08,25,09,12,19.90
2016,08,25,09,13,19.90
2016,08,25,09,14,20.00
2016,08,25,09,15,20.00
2016,08,25,09,16,20.00
2016,08,25,09,17,20.00
2016,08,25,09,18,20.00
2016,08,25,09,19,20.00
2016,08,25,09,20,20.00
2016,08,25,09,21,20.10
2016,08,25,09,22,20.10
2016,08,25,09,23,20.10
2016,08,25,09,24,20.20
2016,08,25,09,25,20.30
2016,08,25,09,26,20.30
2016,08,25,09,27,20.30
2016,08,25,09,28,20.30
2016,08,25,09,29,20.40
2016,08,25,09,30,20.40
2016,08,25,09,31,20.40
2016,08,25,09,32,20.40
2016,08,25,09,33,20.50
2016,08,25,09,34,20.50
2016,08,25,09,35,20.60
2016,08,25,09,36,20.60
2016,08,25,09,37,20.60
2016,08,25,09,38,20.70
2016,08,25,09,39,20.70
2016,08,25,09,40,20.80
2016,08,25,09,41,20.80
2016,08,25,09,42,20.80
2016,08,25,09,43,20.90
2016,08,25,09,44,20.90
2016,08,25,09,45,21.00
2016,08,25,09,46,21.00
2016,08,25,09,47,21.10
2016,08,25,09,48,21.10
2016,08,25,09,49,21.20
2016,08,25,09,50,21.30
2016,08,25,09,51,21.30
2016,08,25,09,52,21.40
2016,08,25,09,53,21.40
2016,08,25,09,54,21.50
2016,08,25,09,55,21.60
2016,08,25,09,56,21.70
2016,08,25,09,57,21.80
2016,08,25,09,58,21.90
2016,08,25,09,59,21.90
2016,08,25,10,00,22.00
2016,08,25,10,01,22.10
2016,08,25,10,02,22.10
2016,08,25,10,03,22.20
2016,08,25,10,04,22.20
2016,08,25,10,05,22.20
2016,08,25,10,06,22.30
2016,08,25,10,07,22.30
2016,08,25,10,08,22.40
2016,08,25,10,09,22.40
2016,08,25,10,10,22.50
2016,08,25,10,11,22.60
2016,08,25,10,12,22.60
2016,08,25,10,13,22.70
2016,08,25,10,14,22.70
2016,08,25,10,15,22.80
2016,08,25,10,16,22.80
2016,08,25,10,17,22.90
2016,08,25,10,18,23.00
2016,08,25,10,19,23.10
2016,08,25,10,20,23.10
2016,08,25,10,21,23.20
2016,08,25,10,22,23.20
2016,08,25,10,23,23.30
2016,08,25,10,24,23.30
2016,08,25,10,25,23.40
2016,08,25,10,26,23.50
2016,08,25,10,27,23.60
2016,08,25,10,28,23.70
2016,08,25,10,29,23.80
2016,08,25,10,30,23.80
2016,08,25,10,31,23.90
2016,08,25,10,32,24.00
2016,08,25,10,33,24.10
2016,08,25,10,34,24.20
2016,08,25,10,35,24.30
2016,08,25,10,36,24.30
2016,08,25,10,37,24.30
2016,08,25,10,38,24.40
2016,08,25,10,39,24.50
2016,08,25,10,40,24.50
2016,08,25,10,41,24.60
2016,08,25,10,42,24.70
2016,08,25,10,43,24.70
2016,08,25,10,44,24.80
2016,08,25,10,45,24.80
2016,08,25,10,46,24.90
2016,08,25,10,47,24.90
2016,08,25,10,48,25.00
2016,08,25,10,49,25.10
2016,08,25,10,50,25.20
2016,08,25,10,51,25.30
2016,08,25,10,52,25.40
2016,08,25,10,53,25.50
2016,08,25,10,54,25.50
2016,08,25,10,55,25.60
2016,08,25,10,56,25.60
2016,08,25,10,57,25.70
2016,08,25,10,58,25.70
2016,08,25,10,59,25.70
2016,08,25,11,00,25.70
2016,08,25,11,01,25.70
2016,08,25,11,02,25.70
2016,08,25,11,03,25.70
2016,08,25,11,04,25.70
2016,08,25,11,05,25.60
2016,08,25,11,06,25.70
2016,08,25,11,07,25.70
2016,08,25,11,08,25.70
2016,08,25,11,09,25.70
2016,08,25,11,10,25.70
2016,08,25,11,11,25.80
2016,08,25,11,12,25.80
2016,08,25,11,13,25.80
2016,08,25,11,14,25.80
2016,08,25,11,15,25.90
2016,08,25,11,16,25.90
2016,08,25,11,17,26.00
2016,08,25,11,18,26.00
2016,08,25,11,19,26.10
2016,08,25,11,20,26.10
2016,08,25,11,21,26.10
2016,08,25,11,22,26.10
2016,08,25,11,23,26.10
2016,08,25,11,24,26.10
2016,08,25,11,25,26.10
2016,08,25,11,26,26.20
2016,08,25,11,27,26.20
2016,08,25,11,28,26.30
2016,08,25,11,29,26.40
2016,08,25,11,30,26.40
2016,08,25,11,31,26.50
2016,08,25,11,32,26.50
2016,08,25,11,33,26.50
2016,08,25,11,34,26.50
2016,08,25,11,35,26.50
2016,08,25,11,36,26.50
2016,08,25,11,37,26.50
2016,08,25,11,38,26.50
2016,08,25,11,39,26.60
2016,08,25,11,40,26.60
2016,08,25,11,41,26.70
2016,08,25,11,42,26.70
2016,08,25,11,43,26.70
2016,08,25,11,44,26.70
2016,08,25,11,45,26.80
2016,08,25,11,46,26.80
2016,08,25,11,47,26.80
2016,08,25,11,48,26.90
2016,08,25,11,49,26.90
2016,08,25,11,50,27.00
2016,08,25,11,51,27.10
2016,08,25,11,52,27.30
2016,08,25,11,53,27.40
2016,08,25,11,54,27.50
2016,08,25,11,55,27.50
2016,08,25,11,56,27.60
2016,08,25,11,57,27.60
2016,08,25,11,58,27.60
2016,08,25,11,59,27.70
2016,08,25,12,00,27.80
2016,08,25,12,01,27.80
2016,08,25,12,02,27.90
2016,08,25,12,03,28.00
2016,08,25,12,04,28.10
2016,08,25,12,05,28.20
2016,08,25,12,06,28.20
2016,08,25,12,07,28.30
2016,08,25,12,08,28.30
2016,08,25,12,09,28.30
2016,08,25,12,10,28.40
2016,08,25,12,11,28.50
2016,08,25,12,12,28.50
2016,08,25,12,13,28.50
2016,08,25,12,14,28.40
2016,08,25,12,15,28.40
2016,08,25,12,16,28.40
2016,08,25,12,17,28.40
2016,08,25,12,18,28.50
2016,08,25,12,19,28.50
2016,08,25,12,20,28.60
2016,08,25,12,21,28.70
2016,08,25,12,22,28.80
2016,08,25,12,23,28.80
2016,08,25,12,24,28.90
2016,08,25,12,25,28.80
2016,08,25,12,26,28.80
2016,08,25,12,27,28.70
2016,08,25,12,28,28.70
2016,08,25,12,29,28.80
2016,08,25,12,30,28.80
2016,08,25,12,31,28.90
2016,08,25,12,32,29.00
2016,08,25,12,33,29.10
2016,08,25,12,34,29.10
2016,08,25,12,35,29.20
2016,08,25,12,36,29.20
2016,08,25,12,37,29.20
2016,08,25,12,38,29.10
2016,08,25,12,39,29.10
2016,08,25,12,40,29.10
2016,08,25,12,41,29.10
2016,08,25,12,42,29.10
2016,08,25,12,43,29.10
2016,08,25,12,44,29.10
2016,08,25,12,45,29.20
2016,08,25,12,46,29.20
2016,08,25,12,47,29.20
2016,08,25,12,48,29.30
2016,08,25,12,49,29.40
2016,08,25,12,50,29.50
2016,08,25,12,51,29.50
2016,08,25,12,52,29.60
2016,08,25,12,53,29.60
2016,08,25,12,54,29.50
2016,08,25,12,55,29.50
2016,08,25,12,56,29.50
2016,08,25,12,57,29.40
2016,08,25,12,58,29.40
2016,08,25,12,59,29.30
2016,08,25,13,00,29.30
2016,08,25,13,01,29.30
2016,08,25,13,02,29.30
2016,08,25,13,03,29.30
2016,08,25,13,04,29.30
2016,08,25,13,05,29.30
2016,08,25,13,06,29.30
2016,08,25,13,07,29.30
2016,08,25,13,08,29.30
2016,08,25,13,09,29.40
2016,08,25,13,10,29.40
2016,08,25,13,11,29.50
2016,08,25,13,12,29.50
2016,08,25,13,13,29.60
2016,08,25,13,14,29.70
2016,08,25,13,15,29.80
2016,08,25,13,16,29.80
2016,08,25,13,17,29.80
2016,08,25,13,18,29.80
2016,08,25,13,19,29.90
2016,08,25,13,20,29.90
2016,08,25,13,21,29.90
2016,08,25,13,22,29.90
2016,08,25,13,23,30.00
2016,08,25,13,24,30.00
2016,08,25,13,25,30.10
2016,08,25,13,26,30.10
2016,08,25,13,27,30.10
2016,08,25,13,28,30.20
2016,08,25,13,29,30.20
2016,08,25,13,30,30.30
2016,08,25,13,31,30.40
2016,08,25,13,32,30.40
2016,08,25,13,33,30.40
2016,08,25,13,34,30.50
2016,08,25,13,35,30.50
2016,08,25,13,36,30.50
2016,08,25,13,37,30.60
2016,08,25,13,38,30.60
2016,08,25,13,39,30.70
2016,08,25,13,40,30.70
2016,08,25,13,41,30.80
2016,08,25,13,42,30.80
2016,08,25,13,43,31.00
2016,08,25,13,44,31.10
2016,08,25,13,45,31.20
2016,08,25,13,46,31.20
2016,08,25,13,47,31.30
2016,08,25,13,48,31.30
2016,08,25,13,49,31.30
2016,08,25,13,50,31.30
2016,08,25,13,51,31.30
2016,08,25,13,52,31.30
2016,08,25,13,53,31.40
2016,08,25,13,54,31.50
2016,08,25,13,55,31.60
2016,08,25,13,56,31.60
2016,08,25,13,57,31.60
2016,08,25,13,58,31.60
2016,08,25,13,59,31.60
2016,08,25,14,00,31.60
2016,08,25,14,01,31.60
2016,08,25,14,02,31.70
2016,08,25,14,03,31.70
2016,08,25,14,04,31.70
2016,08,25,14,05,31.70
2016,08,25,14,06,31.70
2016,08,25,14,07,31.70
2016,08,25,14,08,31.70
2016,08,25,14,09,31.80
2016,08,25,14,10,31.80
2016,08,25,14,11,31.80
2016,08,25,14,12,31.80
2016,08,25,14,13,31.90
2016,08,25,14,14,31.80
2016,08,25,14,15,31.80
2016,08,25,14,16,31.80
2016,08,25,14,17,31.70
2016,08,25,14,18,31.70
2016,08,25,14,19,31.70
2016,08,25,14,20,31.70
2016,08,25,14,21,31.70
2016,08,25,14,22,31.70
2016,08,25,14,23,31.70
2016,08,25,14,24,31.80
2016,08,25,14,25,31.80
2016,08,25,14,26,31.80
2016,08,25,14,27,31.80
2016,08,25,14,28,31.80
2016,08,25,14,29,31.80
2016,08,25,14,30,31.80
2016,08,25,14,31,31.80
2016,08,25,14,32,31.70
2016,08,25,14,33,31.70
2016,08,25,14,34,31.70
2016,08,25,14,35,31.80
2016,08,25,14,36,31.80
2016,08,25,14,37,31.80
2016,08,25,14,38,31.70
2016,08,25,14,39,31.70
2016,08,25,14,40,31.80
2016,08,25,14,41,31.80
2016,08,25,14,42,31.80
2016,08,25,14,43,31.80
2016,08,25,14,44,31.80
2016,08,25,14,45,31.90
2016,08,25,14,46,31.90
2016,08,25,14,47,31.80
2016,08,25,14,48,31.80
2016,08,25,14,49,31.80
2016,08,25,14,50,31.90
2016,08,25,14,51,31.90
2016,08,25,14,52,32.00
2016,08,25,14,53,32.00
2016,08,25,14,54,32.10
2016,08,25,14,55,32.10
2016,08,25,14,56,32.00
2016,08,25,14,57,31.90
2016,08,25,14,58,31.80
2016,08,25,14,59,31.80
2016,08,25,15,00,31.90
2016,08,25,15,01,32.00
2016,08,25,15,02,32.00
2016,08,25,15,03,32.10
2016,08,25,15,04,32.10
2016,08,25,15,05,32.20
2016,08,25,15,06,32.20
2016,08,25,15,07,32.30
2016,08,25,15,08,32.30
2016,08,25,15,09,32.20
2016,08,25,15,10,32.20
2016,08,25,15,11,32.20
2016,08,25,15,12,32.20
2016,08,25,15,13,32.20
2016,08,25,15,14,32.30
2016,08,25,15,15,32.30
2016,08,25,15,16,32.30
2016,08,25,15,17,32.30
2016,08,25,15,18,32.30
2016,08,25,15,19,32.40
2016,08,25,15,20,32.50
2016,08,25,15,21,32.60
2016,08,25,15,22,32.60
2016,08,25,15,23,32.60
2016,08,25,15,24,32.60
2016,08,25,15,25,32.70
2016,08,25,15,26,32.70
2016,08,25,15,27,32.70
2016,08,25,15,28,32.70
2016,08,25,15,29,32.60
2016,08,25,15,30,32.60
2016,08,25,15,31,32.60
2016,08,25,15,32,32.60
2016,08,25,15,33,32.70
2016,08,25,15,34,32.70
2016,08,25,15,35,32.70
2016,08,25,15,36,32.70
2016,08,25,15,37,32.70
2016,08,25,15,38,32.70
2016,08,25,15,39,32.70
2016,08,25,15,40,32.70
2016,08,25,15,41,32.70
2016,08,25,15,42,32.70
2016,08,25,15,43,32.60
2016,08,25,15,44,32.50
2016,08,25,15,45,32.40
2016,08,25,15,46,32.30
2016,08,25,15,47,32.30
2016,08,25,15,48,32.30
2016,08,25,15,49,32.30
2016,08,25,15,50,32.40
2016,08,25,15,51,32.40
2016,08,25,15,52,32.40
2016,08,25,15,53,32.50
2016,08,25,15,54,32.60
2016,08,25,15,55,32.60
2016,08,25,15,56,32.60
2016,08,25,15,57,32.70
2016,08,25,15,58,32.80
2016,08,25,15,59,32.80
2016,08,25,16,00,32.80
2016,08,25,16,01,32.80
2016,08,25,16,02,32.90
2016,08,25,16,03,32.90
2016,08,25,16,04,32.90
2016,08,25,16,05,33.00
2016,08,25,16,06,33.00
2016,08,25,16,07,33.10
2016,08,25,16,08,33.10
2016,08,25,16,09,33.20
2016,08,25,16,10,33.20
2016,08,25,16,11,33.20
2016,08,25,16,12,33.20
2016,08,25,16,13,33.20
2016,08,25,16,14,33.20
2016,08,25,16,15,33.10
2016,08,25,16,16,33.00
2016,08,25,16,17,33.00
2016,08,25,16,18,33.10
2016,08,25,16,19,33.10
2016,08,25,16,20,33.10
2016,08,25,16,21,33.10
2016,08,25,16,22,33.00
2016,08,25,16,23,33.00
2016,08,25,16,24,33.00
2016,08,25,16,25,33.00
2016,08,25,16,26,33.10
2016,08,25,16,27,33.20
2016,08,25,16,28,33.20
2016,08,25,16,29,33.20
2016,08,25,16,30,33.20
2016,08,25,16,31,33.20
2016,08,25,16,32,33.20
2016,08,25,16,33,33.20
2016,08,25,16,34,33.20
2016,08,25,16,35,33.20
2016,08,25,16,36,33.20
2016,08,25,16,37,33.20
2016,08,25,16,38,33.20
2016,08,25,16,39,33.20
2016,08,25,16,40,33.30
2016,08,25,16,41,33.30
2016,08,25,16,42,33.30
2016,08,25,16,43,33.40
2016,08,25,16,44,33.40
2016,08,25,16,45,33.50
2016,08,25,16,46,33.50
2016,08,25,16,47,33.40
2016,08,25,16,48,33.40
2016,08,25,16,49,33.40
2016,08,25,16,50,33.40
2016,08,25,16,51,33.30
2016,08,25,16,52,33.40
2016,08,25,16,53,33.40
2016,08,25,16,54,33.40
2016,08,25,16,55,33.50
2016,08,25,16,56,33.60
2016,08,25,16,57,33.50
2016,08,25,16,58,33.50
2016,08,25,16,59,33.50
2016,08,25,17,00,33.40
2016,08,25,17,01,33.30
2016,08,25,17,02,33.20
2016,08,25,17,03,33.10
2016,08,25,17,04,33.10
2016,08,25,17,05,33.10
2016,08,25,17,06,33.10
2016,08,25,17,07,33.10
2016,08,25,17,08,33.10
2016,08,25,17,09,33.10
2016,08,25,17,10,33.10
2016,08,25,17,11,33.10
2016,08,25,17,12,33.20
2016,08,25,17,13,33.20
2016,08,25,17,14,33.20
2016,08,25,17,15,33.20
2016,08,25,17,16,33.30
2016,08,25,17,17,33.30
2016,08,25,17,18,33.30
2016,08,25,17,19,33.20